Miscellaneous Local Product
Issued by NWS North Platte, NE

Home | Current Version | Previous Version | Graphics & Text | Print | Product List | Glossary On
Versions: 1 2 3 4 5 6 7 8 9 10 11 12 13 14 15 16 17 18 19 20 21 22 23 24 25 26 27 28 29 30 31 32 33 34 35 36 37 38 39 40 41 42 43 44 45 46 47 48 49 50
696
AXUS43 KLBF 100310
MISLBF


WESTERN AND NORTH CENTRAL NEBRASKA HOURLY WEATHER ROUNDUP
NATIONAL WEATHER SERVICE NORTH PLATTE NE
900 PM CST TUE FEB 09 2016

NOTE: "FAIR" INDICATES FEW OR NO CLOUDS BELOW 12,000 FEET WITH NO
SIGNIFICANT WEATHER AND/OR OBSTRUCTIONS TO VISIBILITY.

NOTE: STATIONS NOT REPORTING VARIABLES SUCH AS SKY/WEATHER OR
PRESSURE ARE PROVIDED BY THE NEBRASKA DEPARTMENT OF
ROADS...RAWS...AND APRS NETWORKS...AND ARE NOT UNDER
NATIONAL WEATHER SERVICE QUALITY CONTROL.

...OBSERVATIONS IN AND NEAR THE EASTERN PANHANDLE OF NEBRASKA...

CITY           SKY/WX    TMP DP  RH WIND       PRES   REMARKS
PINE RIDGE     CLEAR     32  27  81 SW6       30.10F WCI  26
CHADRON        CLEAR     39  29  67 W13       30.12F WCI  31
ALLIANCE       CLEAR     37  30  75 NW15      30.13F WCI  28
SIDNEY         CLEAR     36  29  75 W12       30.18F WCI  28
CRESCENT LAKE    N/A     36  28  73 NW8         N/A  WCI  30
BIG SPRINGS      N/A     35  32  88 W7          N/A  WCI  29
$$

...OBSERVATIONS IN NORTH CENTRAL NEBRASKA...

CITY           SKY/WX    TMP DP  RH WIND       PRES   REMARKS
VALENTINE      CLOUDY    34  28  79 SW6       30.10F WCI  29
THEDFORD       CLOUDY    38  32  79 SW3       30.11F
AINSWORTH      CLOUDY    35  26  70 W5        30.10F WCI  31
O`NEILL        CLOUDY    27  19  70 SW7       30.13F WCI  20
ORD            CLOUDY    27  18  69 CALM      30.15F
BROKEN BOW     CLOUDY    29  24  82 CALM      30.14F
VALENTINE NWR    N/A     36  27  69 W6          N/A  WCI  31
BUTTE            N/A     28  18  66 E3          N/A
HALSEY           N/A     38  27  63 W3          N/A
CHAMBERS         N/A     25  12  58 E3          N/A
EWING            N/A     25  18  75 CALM        N/A
$$

...OBSERVATIONS IN SOUTHWEST NEBRASKA AND FAR NORTHEAST COLORADO...

CITY           SKY/WX    TMP DP  RH WIND       PRES   REMARKS
WRAY           FAIR      36  31  80 W10       30.20S WCI  29
HOLYOKE        FAIR      41  32  70 W12G17    30.18F
IMPERIAL       CLEAR     38  30  73 W10       30.16F WCI  31
OGALLALA       CLEAR     33  29  83 SW7       30.15F WCI  27
NORTH PLATTE   CLOUDY    36  28  73 CALM      30.15F
MCCOOK         CLOUDY    33  27  78 SE6       30.18F WCI  28
LEXINGTON      CLOUDY    32  24  73 S3        30.18S
PAXTON           N/A     35  32  89 CALM        N/A
STAPLETON        N/A     35  30  82 CALM        N/A
GOTHENBURG       N/A     36  26  65 SW5         N/A  WCI  32
CALLAWAY         N/A     31  27  83 S3          N/A
$$

...OBSERVATIONS IN CENTRAL LINCOLN COUNTY AREA...

CITY           SKY/WX    TMP DP  RH WIND       PRES   REMARKS
N.P. AIRPORT   CLOUDY    36  28  73 CALM      30.15F
N.P. DOWNTOWN    N/A     36  31  82 CALM        N/A
N.P. SOUTHEAST   N/A     36  30  79 CALM        N/A
N.P. HILLCREST   N/A     35  30  82 CALM        N/A
$$

...SOME OBSERVATIONS FROM AROUND THE REGION...

CITY           SKY/WX    TMP DP  RH WIND       PRES   REMARKS
DENVER         CLEAR     40  21  46 SW16      30.27F WCI  31
LARAMIE        CLOUDY    27  20  75 SE8       30.33F WCI  19
CHEYENNE       CLEAR     41  18  39 W13       30.26F
SCOTTSBLUFF    CLEAR     38  28  67 NW10      30.19S WCI  31
RAPID CITY     CLEAR     28  24  85 CALM      30.08F
BISMARCK       CLOUDY    35  22  58 NE3       30.08F
PIERRE         CLOUDY    31  23  72 SE3       30.09F
WINNER         CLOUDY    34  23  64 SW6       30.10F WCI  29
SIOUX FALLS    CLOUDY    22  14  71 E5        30.16F WCI  16
OMAHA          CLOUDY    24  15  68 W7        30.25F WCI  16
GRAND ISLAND   CLOUDY    23  15  71 S8        30.21F WCI  14
KANSAS CITY    CLEAR     22   9  57 NW12      30.25F WCI  10
WICHITA        CLOUDY    32  13  45 N10       30.30F WCI  24
OKLAHOMA CITY  PTCLDY    39  19  44 N6        30.30S WCI  35
LIBERAL        CLEAR     34  19  55 NW6       30.27S WCI  29
HAYS           CLOUDY    28  14  54 SE7       30.25F WCI  21
GOODLAND       CLEAR     40  28  62 W15       30.21S WCI  32
$$




USA.gov is the U.S. government's official web portal to all federal, state and local government web resources and services.